Home > Weather > Colonia > Past weeks

Flag for Micronesia Weather for the Past 2 Weeks in Colonia, Yap, Micronesia

Now
93 °F

Broken clouds.


Feels Like: 107 °F
Forecast: 80 / 92 °F
Wind: 8 mph from East

Location: Yap Island

Current Time: May 4, 2016 at 2:51:31 PM

Latest Report: May 4, 2016 at 1:51 PM


Visibility: 12 mi

Pressure: 29.83 "Hg

Humidity: 58%

Dew Point: 76 °F

Location of ColoniaLocation

Historic Weather in Colonia — Graph

°F

Colonia Temperature Yesterday

Maximum temperature yesterday: 99 °F (at 8:53 PM)
Minimum temperature yesterday: 80 °F (at 2:53 AM)
Average temperature yesterday: 85 °F

High & Low Weather Summary for the Past Weeks

 TemperatureHumidityPressure
High99 °F (May 3, 8:53 PM)94% (Apr 30, 9:53 PM)29.91 "Hg (Apr 30, 9:53 PM)
Low77 °F (Apr 24, 6:50 AM)46% (May 3, 8:53 PM)29.75 "Hg (Apr 27, 3:51 PM)
Average84 °F76%29.84 "Hg
* Reported Apr 19 12:50 PM — May 4 12:52 PM, Colonia, Weather by CustomWeather, © 2016

Note: Actual official high and low records may vary slightly from our data, if they occured in-between our weather recording intervals... More about our weather records

Advertising

Colonia Weather History for the Previous 24 Hours

Scroll right to see more
 ConditionsComfort  
Time TempWeatherWind HumidityBarometerVisibility
12:52 PM
Wed, May 4
93 °FScattered clouds.8 mph58%29.85 "Hg12 mi
11:52 AM92 °FScattered clouds.9 mph58%29.87 "Hg12 mi
10:53 AM91 °FScattered clouds.8 mph61%29.90 "Hg12 mi
9:50 AM89 °FScattered clouds.12 mph63%29.90 "Hg12 mi
8:50 AM87 °FScattered clouds.10 mph67%29.88 "Hg12 mi
7:51 AM84 °FPassing clouds.5 mph76%29.88 "Hg12 mi
6:50 AM78 °FPassing clouds.5 mph88%29.86 "Hg12 mi
5:52 AM78 °FPartly cloudy.5 mph88%29.85 "Hg12 mi
4:50 AM78 °FPartly cloudy.3 mph87%29.83 "Hg12 mi
3:53 AM79 °FPartly cloudy.3 mph86%29.83 "Hg12 mi
2:50 AM79 °FPartly cloudy.3 mph86%29.84 "Hg12 mi
1:54 AM79 °FPartly cloudy.3 mph85%29.85 "Hg12 mi
12:53 AM79 °FPartly cloudy.3 mph84%29.85 "Hg12 mi
11:50 PM
Tue, May 3
80 °FPartly cloudy.3 mph84%29.88 "Hg12 mi
10:50 PM80 °FPartly cloudy.3 mph83%29.88 "Hg12 mi
9:55 PM81 °FPartly cloudy.5 mph83%29.87 "Hg12 mi
8:53 PM99 °FPartly cloudy.5 mph46%29.85 "Hg12 mi
7:55 PM81 °FScattered clouds.5 mph79%29.84 "Hg12 mi
6:50 PM83 °FScattered clouds.8 mph73%29.83 "Hg12 mi
5:53 PM87 °FScattered clouds.8 mph70%29.80 "Hg12 mi
4:52 PM87 °FScattered clouds.7 mph66%29.79 "Hg12 mi
3:54 PM90 °FPassing clouds.10 mph59%29.80 "Hg12 mi
2:52 PM92 °FScattered clouds.7 mph56%29.81 "Hg12 mi
Weather by CustomWeather, © 2016

See weather overviewHow to use our weather pages